Время (UTC), дата Ветер
(°,м/с) 
Видим.   Явления Облачность Т
(°С)
Тd
(°С)
f(%) Тe
(°С)
Pmin
(гПа)
dP
(гПа)
Po
(мм)
O2
(г/м3)
Тmin Tmax R s Состояние
почвы
00 01.05.12 290 (З) >10 км    4/0 верхняя 
[Ci fib]
+18.2 +5.9 44 +18  1013.3  -0.1  721  271           
03 01.05.12 040 (СВ) >10 км    9/3 1000 м кучево-дожд., верхняя 
[Cb calv|Ci fib]
+12.7 +9.5 81 +14  1015.6  1.3  722  276           
06 01.05.12 080 (В) >10 км    10/6 400 м кучево-дожд., средняя 
[Cb calv|Ac und]
+10.8 +8.1 83 +10  1017.9  1.8  723  279  +12.7         
09 01.05.12 100 (В) >10 км    6/1 600 м верхняя 
[Cu hum|Ci fib]
+16.3 +8.7 61 +16  1016.3  -0.5  723  273           
12 01.05.12 090 (В) >10 км    1/0 верхняя 
[Ci fib]
+19.9 +8.2 47 +21  1014.5  -1.1  722  270           
15 01.05.12 090 (В) >10 км    ясно 
+19 +8.3 50 +20  1013.6  -1  721  270    +20.3       
18 01.05.12 130 (ЮВ) >10 км    ясно 
+14.2 +8.2 67 +14  1014.6  0.1  722  275    +20.3       
21 01.05.12 250 (З) >10 км    ясно 
+14.2 +8.2 67 +14  1014.6  -0.8  721  275           
00 02.05.12 280 (З) >10 км    ясно 
+14.2 +7.1 62 +14  1013.4  -0.3  721  275           
03 02.05.12 270 (З) >10 км    1/0 верхняя 
[Ci fib]
+15.2 +8.1 63 +15  1013.4  -0.1  721  274           
06 02.05.12 280 (З) >10 км    ясно 
+20 +9 49 +21  1013.3  0.8  721  269  +11.4         
09 02.05.12 280 (З) >10 км    3/3 600 м 
[Cu hum]
+23.7 +9.2 40 +25  1012.2  -0.4  721  266           
12 02.05.12 290 (З) >10 км    6/6 600 м 
[Cu hum]
+25.2 +9.5 37 +26  1011.5  -0.5  721  264           
15 02.05.12 010 (С) >10 км    1/0 средняя 
[Ac trans]
+20.4 +9.1 48 +21  1012.6  0.3  721  269    +25.3       
18 02.05.12 070 (В) >10 км    ясно 
+12.9 +2.4 49 +12  1015.3  0.3  722  277    +25.3       
21 02.05.12 120 (ЮВ) >10 км    ясно 
+10.6 +1.9 55 +10  1014.8  -0.9  721  279           
00 03.05.12 130 (ЮВ) >10 км    ясно 
+10.7 -2.8 39 +10  1013  -1.8  720  279           
03 03.05.12 160 (Ю) >10 км    4/0 верхняя 
[Ci]
+11.9 -3.1 35 +11  1012.1  -0.6  719  278           
06 03.05.12 140 (ЮВ) 2000 м    ясно 
+18.8 +1.3 31 +19  1010.2  -0.5  719  271  +9.9         
09 03.05.12 100 (В) >10 км    1/0 верхняя 
[Ci sp]
+23.7 +6.3 33 +24  1008.4  -0.9  718  265           
12 03.05.12 160 (Ю) >10 км    4/3 600 м верхняя 
[Cu hum|Ci fib]
+26.1 +7.5 31 +26  1006.8  -1.1  717  263           
15 03.05.12 120 (ЮВ) >10 км    10/3 1000 м средняя, верхняя 
[Sc|Ac trans|Cs]
+22.6 +9.4 43 +24  1006.8  -0.6  717  265    +26.1       
18 03.05.12 160 (Ю) >10 км    8/0 средняя, верхняя 
[Ac trans|Ci fib]
+18.2 +8.7 54 +19  1007.7  0.1  717  269    +26.1       
21 03.05.12 160 (Ю) >10 км    6/0 верхняя 
[Ci fib]
+15.6 +8.7 64 +16  1007.5  -0.6  717  272           
00 04.05.12 170 (Ю) >10 км    5/0 верхняя 
[Ci fib]
+13.1 +7.8 70 +14  1007.5  -0.4  716  274           
03 04.05.12 170 (Ю) >10 км    8/0 верхняя 
[Ci fib]
+14.6 +8.2 65 +15  1007.2  716  273           
06 04.05.12 140 (ЮВ) >10 км    8/0 верхняя 
[Ci fib]
+21.5 +8.9 44 +22  1006.6  0.6  717  266  +12.9         
09 04.05.12 110 (В) >10 км    6/1 600 м верхняя 
[Cu hum|Ci fib]
+24.9 +5.5 29 +25  1005.5  -0.5  716  264           
12 04.05.12 360 (С) >10 км    6/3 600 м верхняя 
[Cu hum|Ci fib]
+24.4 +3.7 26 +24  1004.8  -0.7  716  264           
15 04.05.12 090 (В) >10 км    6/3 1000 м верхняя 
[Cu hum|Ci fib]
+23.3 +3.8 28 +23  1005.2  0.2  716  265    +25.6       
18 04.05.12 130 (ЮВ) >10 км    3/0 средняя 
[Ac trans]
+17 +5.1 45 +17  1007.7  1.3  717  271    +25.6       
21 04.05.12 150 (ЮВ) >10 км    ясно 
+15.9 +6.3 53 +17  1008.4  0.5  717  272           
00 05.05.12 170 (Ю) >10 км    ясно 
+14.9 +6.2 56 +16  1008.6  717  273           
03 05.05.12 110 (В) >10 км    ясно 
+14.1 +7.2 63 +15  1009.9  1.2  718  274           
06 05.05.12 100 (В) >10 км    ясно 
+22 +4.9 33 +22  1009.1  0.5  719  267  +12.3         
09 05.05.12 110 (В) >10 км    1/0 верхняя 
[Ci fib]
+24.3 +2.8 25 +24  1009  0.3  719  265           
12 05.05.12 090 (В) >10 км    3/0 верхняя 
[Ci fib]
+25 +2.1 22 +25  1008.5  -0.5  719  265           
15 05.05.12 100 (В) >10 км    3/1 1000 м верхняя 
[Sc diur, vesp|Ci fib]
+23 +2 25 +23  1008.8  0.1  719  267    +25.8       
18 05.05.12 100 (В) >10 км    4/0 верхняя 
[Ci fib]
+15.8 +5.5 50 +16  1010.9  0.8  719  273    +25.8       
21 05.05.12 090 (В) >10 км    3/0 верхняя 
[Ci fib]
+13.8 +5.2 56 +13  1011.3  0.1  719  275           
00 06.05.12 090 (В) >10 км    3/0 верхняя 
[Ci fib]
+11.5 +6.7 72 +12  1012  0.2  719  277           
03 06.05.12 080 (В) >10 км    8/0 верхняя 
[Ci fib]
+12.2 +8.2 76 +12  1012.6  0.8  720  276  +10.7        сухая 
06 06.05.12 110 (В) >10 км    8/0 средняя, верхняя 
[Ac trans|Ci fib]
+19.6 +8.4 48 +20  1011.7  0.4  720  269  +10.7         
09 06.05.12 110 (В) >10 км    8/3 600 м средняя, верхняя 
[Cu hum|Ac trans|Ci fib]
+22 +8.7 43 +22  1011.7  0.4  720  267           
12 06.05.12 110 (В) 10  >10 км    8/5 600 м кучево-дожд., верхняя 
[Cb calv|Ci fib]
+23.2 +8.1 38 +23  1010.8  -0.7  720  266           
15 06.05.12 120 (ЮВ) >10 км    9/3 600 м кучево-дожд., средняя 
[Cb calv|Ac trans]
+21.4 +8.7 44 +22  1011.1  720  267    +24       
18 06.05.12 100 (В) >10 км    6/0 средняя 
[Ac trans]
+17.3 +8.8 57 +17  1012.7  721  271    +24       
21 06.05.12 090 (В) >10 км    3/0 средняя 
[Ac trans]
+13 +8.1 72 +13  1013.8  0.4  721  276           
00 07.05.12 100 (В) >10 км    3/0 средняя, верхняя 
[Ac trans|Ci fib]
+12.5 +9 79 +14  1013.6  -0.3  721  276           
03 07.05.12 120 (ЮВ) >10 км    3/0 средняя, верхняя 
[Ac trans|Ci fib]
+12.6 +10 84 +15  1014  0.4  721  276           
06 07.05.12 090 (В) >10 км    6/3 1000 м средняя 
[Sc|Ac trans]
+17.1 +10.8 66 +21  1013.5  0.3  721  271  +10.3         
09 07.05.12 090 (В) >10 км    5/4 600 м средняя 
[Cu hum|Ac trans]
+21.5 +11.2 52 +25  1012.5  -0.2  721  267           
12 07.05.12 110 (В) >10 км    8/8 700 м кучево-дожд. 
[Cb calv]
+24 +10.9 44 +27  1011.3  -0.7  720  265           
15 07.05.12 080 (В) >10 км  гроза без осадков  8/5 600 м кучево-дожд., средняя 
[Cb calv|Ac trans]
+21.7 +12 54 +27  1011.5  -0.2  720  267    +24.6       
18 07.05.12 020 (С) >10 км  гроза без осадков  8/5 1000 м кучево-дожд., верхняя 
[Cb calv|Ci fib]
+18.9 +12 64 +25  1013  0.9  721  269    +24.6       
21 07.05.12 100 (В) >10 км  {гроза}  8/4 1000 м кучево-дожд., верхняя 
[Cb calv|Ci fib]
+15.1 +12.5 84 +21  1014.1  0.4  721  273           
00 08.05.12 120 (ЮВ) >10 км  {гроза}  6/3 1000 м кучево-дожд., верхняя 
[Cb calv|Ci fib]
+13.7 +12.2 91 +20  1014  -0.3  721  274           
03 08.05.12 060 (СВ) >10 км    6/3 1000 м кучево-дожд., верхняя 
[Cb calv|Ci fib]
+14.8 +13.2 90 +23  1014.4  0.6  722  273           
06 08.05.12 030 (СВ) >10 км    8/4 600 м кучево-дожд., верхняя 
[Cb calv|Ci fib]
+19.2 +12.5 65 +26  1013.5  0.1  721  269  +12.5         
09 08.05.12 290 (З) >10 км    9/5 700 м кучево-дожд., средняя 
[Cb calv|Ac trans]
+19.4 +14 71 +28  1014  0.5  722  269           
12 08.05.12 340 (С) >10 км    8/5 600 м кучево-дожд., средняя 
[Cb calv|Ac trans]
+22.2 +13.6 58 +30  1013  -0.5  721  266           
18 08.05.12 270 (З) >10 км  гроза, ливневой дождь  8/4 1000 м кучево-дожд., средняя 
[Cb cap|Ac As]
+15.5 +12.7 83 +22  1015.6  722  273    +24.1  0.0     
21 08.05.12 190 (Ю) >10 км  {гроза}  3/0 средняя 
[Ac trans]
+13.3 +12.1 92 +19  1016.3  0.3  723  275           
00 09.05.12 010 (С) >10 км  {гроза}  3/0 средняя 
[Ac trans]
+13 +12.2 95 +18  1017  0.6  723  276           
03 09.05.12 090 (В) >10 км  местами туман поземный  3/0 средняя 
[Ac trans]
+14 +13 94 +21  1017.8  724  275           
06 09.05.12 130 (ЮВ) >10 км    3/1 600 м верхняя 
[Cu hum|Ci fib]
+20.1 +13.1 64 +26  1018  1.2  725  269  +12.1    0.7     
09 09.05.12 080 (В) >10 км    ясно 
+24.7 +8 34 +25  1016.9  -0.3  725  266           
12 09.05.12 070 (В) >10 км    3/3 600 м 
[Cu hum]
+26.9 +2.1 20 +27  1016.1  -0.5  724  265           
15 09.05.12 060 (СВ) >10 км    6/0 средняя 
[Ac trans]
+24.6 +2.5 24 +25  1016.1  -0.4  724  267    +27.3       
18 09.05.12 010 (С) >10 км    4/0 средняя 
[Ac trans]
+21.3 +6.5 38 +21  1017.3  0.7  724  270    +27.3       
21 09.05.12 050 (СВ) >10 км    ясно 
+17.4 +7.4 52 +18  1017.7  -0.3  724  273           
00 10.05.12 120 (ЮВ) >10 км    ясно 
+13.6 +7.7 67 +14  1019.6  1.1  725  277           
03 10.05.12 160 (Ю) >10 км    1/0 верхняя 
[Ci fib]
+15.7 +9.4 66 +17  1020.1  0.9  726  275           
06 10.05.12 130 (ЮВ) >10 км    ясно 
+22.8 +11.5 49 +27  1019.6  0.8  726  268  +13.5         
09 10.05.12 100 (В) >10 км    ясно 
+26.7 +7.2 29 +27  1018.8  0.1  726  265           
12 10.05.12 100 (В) >10 км    4/4 600 м 
[Cu hum]
+27.3 +8.1 30 +27  1018.1  -0.6  726  264           
15 10.05.12 110 (В) >10 км    3/3 600 м 
[Cu hum]
+26 +8.8 34 +26  1017.2  -1  725  265    +27.6       
18 10.05.12 080 (В) >10 км    1/0 средняя 
[Ac trans]
+18.3 +9.8 58 +21  1019.6  726  272    +27.6       
21 10.05.12 090 (В) >10 км    1/0 средняя 
[Ac trans]
+17.9 +8.1 53 +18  1019.6  0.1  726  273           
00 11.05.12 080 (В) н/о    н/о 
+13.1 +6.6 65 +13  1020.4  0.1  725  278           
03 11.05.12 080 (В) >10 км    1/0 верхняя 
[Ci fib]
+14 +7.4 64 +14  1020  -0.2  725  277           
06 11.05.12 080 (В) >10 км    3/0 верхняя 
[Ci fib]
+21.2 +6.4 38 +21  1019  0.3  726  270  +11.8         
09 11.05.12 080 (В) >10 км    5/3 1000 м верхняя 
[Cu hum|Ci fib]
+26.8 +6.1 27 +27  1017.2  -0.9  725  265           
12 11.05.12 090 (В) >10 км    8/0 верхняя 
[Ci fib]
+28.5 +4.2 21 +29  1015.8  -1  724  264           
15 11.05.12 110 (В) >10 км    8/1 1000 м верхняя 
[Cu hum|Ci fib]
+26.7 +4.2 24 +27  1015.3  -0.8  724  265    +28.6       
18 11.05.12 100 (В) >10 км    5/0 средняя 
[Ac trans]
+21.1 +4.1 33 +21  1017.4  1.1  724  270    +28.6       
21 11.05.12 120 (ЮВ) >10 км    ясно 
+16.8 +2 37 +17  1018.3  0.1  724  275           
00 12.05.12 080 (В) >10 км    3/0 верхняя 
[Ci fib]
+12.7 +4.1 56 +12  1018.8  -0.3  724  278           
03 12.05.12 070 (В) >10 км    4/0 верхняя 
[Ci fib]
+14.8 +6.3 57 +15  1018.2  -0.1  724  276           
06 12.05.12 090 (В) >10 км    6/0 верхняя 
[Ci]
+21.2 +5.1 35 +21  1016.9  0.1  724  270  +12.1         
09 12.05.12 100 (В) >10 км    10/0 средняя, верхняя 
[As trans|Cs]
+24.9 +3 24 +25  1015.2  -1.1  723  267           
12 12.05.12 120 (ЮВ) >10 км    10/0 средняя, верхняя 
[As op|Cs]
+25.2 +3.4 24 +25  1013.6  -1.5  722  266           
15 12.05.12 110 (В) >10 км    10/0 средняя 
[Ac As]
+23 +5.7 33 +23  1012.3  -1.5  721  267    +26.8       
18 12.05.12 090 (В) >10 км    9/0 средняя 
[Ac trans]
+19.8 +4.6 37 +20  1012.5  -0.4  721  270    +26.8       
21 12.05.12 100 (В) >10 км    3/0 средняя 
[Ac trans]
+15.6 +6.9 56 +16  1012.1  -1  720  273           
00 13.05.12 110 (В) >10 км    3/0 средняя 
[Ac trans]
+13.1 +7 66 +13  1011.6  -1  719  275           
03 13.05.12 130 (ЮВ) >10 км    6/0 верхняя 
[Ci fib]
+12.8 +8.4 75 +13  1011.1  -0.5  719  275           
06 13.05.12 080 (В) >10 км    9/0 верхняя 
[Ci fib]
+19.2 +6 42 +19  1009.1  -0.8  718  269  +10.8         
09 13.05.12 110 (В) >10 км    10/3 1000 м средняя 
[Sc diur, vesp|Ac und]
+22.2 +5 33 +22  1007.4  -1.1  717  266           
12 13.05.12 100 (В) >10 км    10/3 1000 м верхняя 
[Sc|Ci fib]
+25.1 +6 29 +25  1005.2  -1.6  716  263           
15 13.05.12 110 (В) >10 км    10/3 1000 м кучево-дожд., средняя 
[Cb calv|Ac und]
+20.6 +2.9 31 +21  1006.5  0.5  717  268    +25.8       
18 13.05.12 300 (СЗ) >10 км  в посл. час ливневой дождь  10/6 1000 м кучево-дожд., средняя 
[Cb calv|Ac und]
+16.5 +11.5 72 +21  1007  0.1  716  270    +25.8       
21 13.05.12 320 (СЗ) >10 км    9/4 1000 м кучево-дожд., средняя 
[Cb calv|Ac trans]
+16.6 +9.5 63 +18  1005.9  0.1  716  270           
00 14.05.12 320 (СЗ) >10 км    10/3 1000 м кучево-дожд., средняя 
[Cb calv|Ac und]
+16.2 +10 67 +19  1005.6  -0.3  715  270           
03 14.05.12 290 (З) >10 км    9/3 1000 м кучево-дожд., средняя 
[Cb calv|Ac trans]
+16.8 +11.2 70 +21  1005.7  0.2  716  269           
06 14.05.12 320 (СЗ) >10 км    8/3 600 м кучево-дожд., средняя, верхняя 
[Cb calv|Ac trans|Ci fib]
+19.1 +12.5 66 +26  1006  0.7  716  267  +13.3    0.0     
09 14.05.12 290 (З) >10 км    9/5 600 м кучево-дожд., верхняя 
[Cb calv|Ci]
+22.3 +12.3 53 +28  1005.6  0.1  716  264           
12 14.05.12 330 (СЗ) >10 км    9/5 600 м кучево-дожд., средняя, верхняя 
[Cb calv|Ac trans|Ci fib]
+21.3 +11.4 53 +25  1005.7  0.1  716  265           
15 14.05.12 280 (З) >10 км    9/5 600 м кучево-дожд., средняя, верхняя 
[Cb calv|Ac trans|Ci fib]
+19.9 +11.8 60 +26  1006.5  0.6  717  267    +22.4       
18 14.05.12 240 (ЮЗ) >10 км    8/4 600 м кучево-дожд., средняя 
[Cb calv|Ac trans]
+16.2 +11.2 72 +20  1007.8  0.6  717  271    +22.4       
21 14.05.12 250 (З) >10 км    8/0 средняя 
[Ac trans]
+16.7 +13 79 +23  1008  0.3  717  270           
00 15.05.12 290 (З) >10 км    8/0 средняя 
[Ac trans]
+16.1 +13.6 85 +23  1008.3  0.3  717  270           
03 15.05.12 270 (З) >10 км  слаб. ливневой дождь  10/6 270 м кучево-дожд., средняя 
[Cb cap|Ac und]
+15.2 +14 93 +23  1010  1.4  718  271           
06 15.05.12 260 (З) >10 км  {ливн. осадки}  10/8 200 м кучево-дожд., средняя 
[Cb calv|Ac und]
+16.7 +14.4 86 +26  1011.1  1.3  719  270  +14    0.8     
09 15.05.12 300 (СЗ) >10 км  в посл. час ливневой дождь  10/6 400 м кучево-дожд., средняя 
[Cb calv|Ac und]
+17.5 +14.7 84 +27  1011.4  0.4  720  269           
12 15.05.12 360 (С) >10 км  {ливн. осадки}  8/5 600 м кучево-дожд., верхняя 
[Cb calv|Ci fib]
+20.7 +13.5 63 +28  1009.9  -0.9  719  267           
15 15.05.12 310 (СЗ) >10 км    8/5 1000 м кучево-дожд., средняя, верхняя 
[Cb calv|Ac trans|Ci fib]
+21.1 +12.7 59 +27  1009.3  -0.9  719  266    +23       
18 15.05.12 280 (З) >10 км    4/0 средняя 
[Ac trans]
+16 +13.6 86 +23  1011  0.7  719  271    +23     
21 15.05.12 290 (З) >10 км    ясно 
+15.6 +13 85 +22  1010.8  -0.3  719  271           
00 16.05.12 320 (СЗ) >10 км    ясно 
+15.1 +12.5 84 +21  1010.8  -0.1  719  272           
03 16.05.12 300 (СЗ) >10 км    1/0 средняя 
[Ac trans]
+17 +12 72 +22  1010.5  719  270           
06 16.05.12 290 (З) >10 км    3/3 600 м верхняя 
[Cu hum|Ci fib]
+21 +12.9 60 +27  1010.5  0.7  720  267  +13.5         
09 16.05.12 350 (С) >10 км    6/4 600 м верхняя 
[Cu hum|Ci fib]
+23.3 +12.3 50 +29  1009.9  -0.2  719  265           
12 16.05.12 010 (С) >10 км    6/4 600 м верхняя 
[Cu med, cong|Ci fib]
+25.2 +11.3 42 +29  1008.8  -0.7  719  263           
15 16.05.12 010 (С) >10 км    5/4 1000 м верхняя 
[Cu hum|Ci fib]
+25.4 +10.1 38 +28  1008.2  -0.5  718  263    +26.4       
18 16.05.12 030 (СВ) >10 км    1/0 средняя 
[Ac cuf]
+20.7 +10.7 53 +24  1009.4  0.3  719  267    +26.4       
21 16.05.12 110 (В) >10 км    ясно 
+17 +11.3 69 +21  1009.3  -0.7  718  270           
00 17.05.12 130 (ЮВ) >10 км    ясно 
+15.9 +11.4 75 +20  1008.5  -0.9  717  271           
03 17.05.12 120 (ЮВ) >10 км    8/0 верхняя 
[Cc]
+17.1 +13.5 79 +25  1008.5  0.2  718  269           
09 17.05.12 110 (В) >10 км    6/1 600 м верхняя 
[Cu hum|Ci fib]
+28 +8 28 +28  1007.3  718  261           
12 17.05.12 100 (В) >10 км    9/6 800 м кучево-дожд., верхняя 
[Cb calv|Ci fib]
+28.2 +9.8 32 +30  1006.3  -0.9  717  260           
15 17.05.12 330 (СЗ) >10 км  гроза без осадков{ливн. осадки}  10/8 900 м кучево-дожд., средняя 
[Cb calv|Ac und]
+20.4 +15.2 72 +31  1007.8  0.2  718  266    +29.5       
18 17.05.12 340 (С) >10 км  в посл. час гроза{ливн. осадки}  10/5 600 м кучево-дожд., средняя 
[Cb calv|Ac und]
+17.1 +14 82 +26  1011.3  2.8  720  270    +29.2     
21 17.05.12 360 (С) >10 км    10/5 600 м кучево-дожд., средняя 
[Cb calv|Ac und]
+17 +13.8 81 +25  1010.5  -0.8  719  270           
00 18.05.12 110 (В) >10 км    9/4 600 м кучево-дожд., средняя 
[Cb calv|Ac trans]
+15.3 +14 92 +24  1011.5  0.6  719  272           
03 18.05.12 120 (ЮВ) 4000 м  дымка  10/8 180 м средняя 
[Sc diur, vesp|Ac und]
+15.7 +14.7 94 +24  1011.5  0.1  720  271           
06 18.05.12 110 (В) >10 км    8/4 300 м кучево-дожд., средняя 
[Cb calv|Ac trans]
+18.7 +14.8 78 +28  1012  720  268  +14.7         
09 18.05.12 090 (В) >10 км    6/4 600 м верхняя 
[Cu hum|Ci fib]
+23.4 +14.8 58 +33  1011.1  720  264           
12 18.05.12 100 (В) >10 км    8/3 600 м верхняя 
[Cu hum|Ci fib]
+26.7 +11.4 38 +31  1010.4  -0.2  720  262           
15 18.05.12 110 (В) >10 км  гроза без осадков  8/5 600 м кучево-дожд., средняя 
[Cb calv|Ac trans]
+25.3 +8.9 35 +26  1010.1  -0.5  720  264    +27.1       
18 18.05.12 120 (ЮВ) >10 км  в посл. час гроза{ливн. осадки}  9/6 600 м кучево-дожд., средняя 
[Cb calv|Ac trans]
+18.2 +11.7 66 +23  1014.1  2.7  722  270    +27.1       
21 18.05.12 100 (В) >10 км    3/0 средняя 
[Ac trans]
+15.2 +11.4 78 +19  1013.9  -0.7  721  273           
00 19.05.12 100 (В) >10 км    ясно 
+14.1 +11.8 86 +18  1015.1  0.9  722  274           
03 19.05.12 110 (В) >10 км    3/3 600 м 
[Sc]
+15.2 +13.6 90 +22  1016.2  1.2  723  273           
06 19.05.12 110 (В) >10 км    3/3 300 м кучево-дожд. 
[Cb calv]
+20.1 +14.8 72 +29  1016  0.7  723  268  +13.7    0.5     
09 19.05.12 100 (В) >10 км    4/0 верхняя 
[Ci fib]
+25.4 +11 40 +29  1015.3  0.2  724  265           
12 19.05.12 120 (ЮВ) >10 км    3/1 600 м верхняя 
[Cu hum|Ci fib]
+27.3 +9.1 32 +28  1014.4  -0.7  723  263           
15 19.05.12 120 (ЮВ) >10 км    3/3 600 м 
[Cu hum]
+26 +9.6 36 +27  1013.8  -0.8  722  264    +27.4       
18 19.05.12 110 (В) >10 км    3/0 средняя 
[Ac trans]
+19 +11.7 63 +23  1015.7  0.7  723  270    +27.4       
21 19.05.12 110 (В) >10 км    ясно 
+18.1 +10.9 63 +21  1015.9  723  271           
00 20.05.12 110 (В) >10 км    ясно 
+14.6 +11.3 81 +18  1015.8  -0.7  722  274           
03 20.05.12 090 (В) >10 км    3/0 верхняя 
[Ci fib]
+15.7 +12.5 81 +21  1016  0.4  723  273           
06 20.05.12 100 (В) >10 км    8/0 средняя, верхняя 
[Ac trans|Ci sp]
+20.8 +11.8 56 +25  1015  0.1  723  268  +14         
09 20.05.12 130 (ЮВ) >10 км    10/0 верхняя 
[Cs]
+23.6 +11.6 47 +28  1013.9  -0.6  722  266           
12 20.05.12 110 (В) >10 км    10/0 средняя, верхняя 
[Ac As|Cs]
+24.6 +12.3 46 +30  1013.1  -0.6  722  264           
15 20.05.12 170 (Ю) >10 км    10/3 1000 м средняя, верхняя 
[Sc diur, vesp|Ac trans|Ci fib]
+23 +14 57 +31  1012.6  -0.7  721  265    +24.7       
18 20.05.12 180 (Ю) >10 км    5/0 средняя 
[Ac trans]
+19.8 +13.1 65 +28  1013  -0.2  721  268    +24.7       
21 20.05.12 010 (С) >10 км    10/4 1000 м средняя 
[Sc|Ac und]
+20.1 +13.2 64 +27  1011.5  -0.2  720  268           
00 21.05.12 030 (СВ) >10 км    9/0 средняя 
[Ac trans]
+17.5 +13.5 77 +25  1011.3  -0.6  720  270           
03 21.05.12 050 (СВ) >10 км    5/0 средняя 
[Ac trans]
+17.1 +13.1 77 +26  1010.4  -0.9  719  270           
06 21.05.12 070 (В) >10 км    3/0 средняя 
[Ac trans]
+22.2 +14.2 61 +31  1010  0.5  719  265  +16.2         
09 21.05.12 290 (З) >10 км    3/3 600 м 
[Cu hum]
+25.7 +14.3 49 +34  1008.9  -0.4  719  262           
12 21.05.12 350 (С) н/о    н/о 
+25.6 +11.5 41 +30  1009.1  -0.1  719  263           
15 21.05.12 240 (ЮЗ) 10  >10 км    10/6 840 м кучево-дожд., средняя 
[Cb calv|Ac und]
+17.6 +11.6 68 +21  1013  2.4  721  271    +26.4       
18 21.05.12 260 (З) 10  >10 км  в посл. час ливневой дождь  10/8 800 м кучево-дожд., средняя 
[Cb calv|Ac und]
+15.7 +11.9 78 +20  1013  -0.4  721  272    +26.4       
21 21.05.12 340 (С) >10 км    10/3 600 м кучево-дожд., средняя 
[Cb calv|Ac und]
+17.4 +9.8 61 +21  1011.8  -0.9  720  271           
00 22.05.12 130 (ЮВ) >10 км    9/3 600 м кучево-дожд., средняя 
[Cb calv|Ac trans]
+14 +10.4 79 +17  1012.7  0.3  720  274           
03 22.05.12 270 (З) >10 км    9/3 600 м кучево-дожд., средняя 
[Cb calv|Ac trans]
+16.6 +10.1 65 +18  1012.2  720  272           
06 22.05.12 240 (ЮЗ) >10 км    10/4 600 м кучево-дожд., средняя 
[Cb calv|Ac und]
+17.5 +14.2 81 +26  1012.8  0.7  721  270  +12.3         
09 22.05.12 290 (З) >10 км    10/5 600 м кучево-дожд., средняя 
[Cb calv|Ac und]
+21 +14.2 65 +29  1011.9  -0.3  721  267           
12 22.05.12 300 (СЗ) >10 км  гроза без осадков  8/4 600 м кучево-дожд., средняя 
[Cb calv|Ac trans]
+23.1 +13.7 55 +31  1010.5  -1  720  265           
15 22.05.12 340 (С) >10 км  гроза, ливневой дождь  8/8 600 м кучево-дожд. 
[Cb cap]
+18.8 +15.3 80 +30  1011  -0.2  720  268    +24.7       
18 22.05.12 320 (СЗ) >10 км  {гроза, ливн. осадки}  6/1 1000 м кучево-дожд., средняя 
[Cb cap|Ac As]
+18.2 +14.8 81 +28  1010.6  -0.4  719  269    +24.7     
21 22.05.12 300 (СЗ) >10 км    3/0 средняя 
[Ac trans]
+15.9 +13.9 88 +25  1010.7  -0.3  719  271           
00 23.05.12 320 (СЗ) >10 км    3/0 средняя 
[Ac trans]
+15.9 +13.5 86 +24  1009.2  -1.4  718  271           
03 23.05.12 110 (В) >10 км    4/0 средняя 
[Ac trans]
+16.8 +14.1 84 +26  1009.1  718  270           
06 23.05.12 060 (СВ) >10 км    8/3 600 м средняя 
[Cu hum|Ac trans]
+21.5 +15.8 70 +33  1007.1  -1  717  264  +14.6         
09 23.05.12 060 (СВ) >10 км    9/8 700 м кучево-дожд., верхняя 
[Cb calv|Ci fib]
+24.3 +14.4 54 +33  1005.1  -1.5  716  262           
12 23.05.12 020 (С) >10 км  гроза без осадков{ливн. осадки}  10/8 800 м кучево-дожд., средняя 
[Cb calv|Ac und]
+20.9 +13.9 64 +29  1003.9  -1.7  715  265           
15 23.05.12 120 (ЮВ) >10 км  в посл. час ливневой дождь{гроза}  9/8 700 м кучево-дожд., средняя 
[Cb calv|Ac trans]
+18.1 +14.1 77 +28  1004.3  0.8  715  267    +26.4       
18 23.05.12 220 (ЮЗ) >10 км  в посл. час ливневой дождь{гроза}  9/6 600 м кучево-дожд., средняя 
[Cb cap|Ac trans]
+17.2 +14.3 83 +26  1005.1  0.6  715  268    +26.4     
21 23.05.12 290 (З) >10 км  {ливн. осадки}  10/5 600 м кучево-дожд., средняя 
[Cb calv|Ac und]
+16.1 +14.9 93 +26  1005.1  -0.1  715  269           
00 24.05.12 270 (З) >10 км  {ливн. осадки}  9/4 600 м кучево-дожд., средняя 
[Cb calv|Ac trans]
+15.5 +14.5 94 +24  1005  -0.1  715  269           
03 24.05.12 290 (З) >10 км    9/4 600 м кучево-дожд., средняя 
[Cb calv|Ac trans]
+15.7 +14.4 92 +25  1004.6  -0.4  715  269           
06 24.05.12 290 (З) >10 км    9/4 300 м кучево-дожд., средняя 
[Cb calv|Ac trans]
+17.3 +14.2 82 +26  1004.8  0.5  715  268  +15.3       
09 24.05.12 300 (СЗ) >10 км    10/5 300 м кучево-дожд., средняя 
[Cb calv|Ac und]
+19.4 +14.1 71 +28  1005  0.6  715  266           
12 24.05.12 330 (СЗ) >10 км  слаб. ливневой дождь  10/5 480 м кучево-дожд., средняя 
[Cb cap|Ac und]
+17 +15.1 89 +27  1006.2  0.7  716  268           
15 24.05.12 290 (З) >10 км  {ливн. осадки}  9/6 480 м кучево-дожд., средняя 
[Cb calv|Ac trans]
+14.8 +12.1 84 +19  1007.8  1.1  717  272    +20.1       
18 24.05.12 290 (З) >10 км  {ливн. осадки}  10/5 600 м кучево-дожд., средняя 
[Cb calv|Ac und]
+16.1 +11.5 74 +20  1007.4  -0.2  717  270    +20.1     
21 24.05.12 290 (З) >10 км    10/5 600 м кучево-дожд., средняя 
[Cb calv|Ac und]
+15.1 +11.2 78 +19  1007.4  0.1  717  271           
00 25.05.12 260 (З) >10 км    10/5 600 м кучево-дожд., средняя 
[Cb calv|Ac und]
+13.2 +12.1 93 +18  1007  -0.7  716  273           
03 25.05.12 250 (З) >10 км    4/3 1000 м кучево-дожд., средняя 
[Cb calv|Ac trans]
+13.4 +12.9 97 +20  1006.6  -0.4  716  272           
06 25.05.12 300 (СЗ) >10 км    4/4 600 м 
[Cu med, cong]
+18 +10.1 60 +20  1005.8  716  269  +10.7         
09 25.05.12 310 (СЗ) >10 км    8/8 800 м 
[Cu hum]
+20.4 +9.8 51 +22  1005.4  0.1  716  267           
12 25.05.12 280 (З) >10 км  гроза без осадков  8/8 900 м кучево-дожд. 
[Cb calv]
+21.1 +9 46 +22  1005.7  0.3  716  266           
15 25.05.12 320 (СЗ) н/о    н/о 
+19 +9.6 54 +22  1006.9  0.9  717  268    +21.7       
18 25.05.12 240 (ЮЗ) >10 км    8/5 900 м кучево-дожд., средняя 
[Cb calv|Ac trans]
+16 +11.3 74 +21  1008.3  0.8  717  271    +21.7       
21 25.05.12 240 (ЮЗ) >10 км    4/3 1000 м кучево-дожд., средняя 
[Cb calv|Ac trans]
+12.2 +11.2 94 +17  1008.4  0.8  717  274           
00 26.05.12 210 (ЮЗ) >10 км    4/0 средняя 
[Ac trans]
+12.9 +11.4 91 +17  1008.2  0.1  717  274           
03 26.05.12 270 (З) >10 км  слаб. ливневой дождь  8/4 1000 м кучево-дожд., средняя 
[Cb cap|Ac trans]
+14.5 +12.4 87 +21  1008.3  0.4  717  272           
06 26.05.12 260 (З) >10 км  {ливн. осадки}  8/5 600 м кучево-дожд., средняя, верхняя 
[Cb calv|Ac trans|Ci fib]
+18.4 +10.6 60 +21  1008.1  0.5  717  269  +11.8       
09 26.05.12 280 (З) >10 км    9/6 600 м кучево-дожд., средняя 
[Cb calv|Ac trans]
+17.2 +11.3 68 +21  1009  0.6  718  270           
12 26.05.12 290 (З) >10 км    10/5 600 м кучево-дожд., средняя 
[Cb calv|Ac und]
+17 +11.9 72 +21  1009.5  0.5  718  270           
15 26.05.12 300 (СЗ) >10 км    9/5 600 м кучево-дожд., средняя 
[Cb calv|Ac trans]
+15.5 +12.5 82 +21  1010.1  0.3  719  272    +19.3      замёрзшая 
18 26.05.12 300 (СЗ) >10 км    10/6 480 м средняя 
[Sc|Ac und]
+13.8 +11.9 88 +18  1012.2  1.6  720  274    +19.3  0.0     
21 26.05.12 310 (СЗ) >10 км  слаб. ливневой дождь  10/6 420 м кучево-дожд., средняя 
[Cb cap|Ac und]
+13 +11.9 93 +18  1012.4  -0.1  720  274           
00 27.05.12 290 (З) 4000 м  слаб. ливневой дождь  10/8 180 м кучево-дожд., средняя 
[Cb cap|Ac und]
+12.4 +11.6 95 +16  1012.9  0.4  720  275           
03 27.05.12 270 (З) 3000 м  слаб. дождь{ливн. осадки}  10/10 100 м 
[St|Ns]
+12.3 +11.9 97 +17  1013.7  0.8  721  275           
06 27.05.12 300 (СЗ) 10 км  {ливн. осадки, дождь}  10/6 300 м кучево-дожд., средняя 
[Cb calv|Ac und]
+14.6 +11.9 84 +19  1014  0.6  721  273  +12.2       
09 27.05.12 310 (СЗ) >10 км    10/8 720 м кучево-дожд., средняя 
[Cb calv|Ac und]
+16.3 +11.5 73 +20  1014  0.4  721  272           
12 27.05.12 340 (С) >10 км    10/6 500 м кучево-дожд., средняя 
[Cb calv|Ac und]
+16.8 +12.6 76 +23  1014.6  0.6  722  271           
15 27.05.12 320 (СЗ) >10 км    9/5 600 м кучево-дожд., средняя 
[Cb calv|Ac trans]
+15.9 +11.9 77 +21  1015.3  0.5  722  273           
18 27.05.12 320 (СЗ) >10 км    10/8 420 м кучево-дожд., средняя 
[Cb calv|Ac und]
+14.8 +11.9 83 +20  1016.1  0.6  723  274    +17.1  0.0     
21 27.05.12 350 (С) >10 км  {ливн. осадки}  10/8 700 м кучево-дожд., средняя 
[Cb calv|Ac und]
+13.5 +11.2 86 +18  1015.7  -0.6  722  275           
00 28.05.12 250 (З) >10 км  {ливн. осадки}  6/3 600 м кучево-дожд., средняя 
[Cb calv|Ac trans]
+11 +10 94 +13  1016  -0.2  722  278           
03 28.05.12 300 (СЗ) 10 км    8/4 600 м кучево-дожд., средняя 
[Cb calv|Ac trans]
+13.2 +11.5 89 +18  1015.5  -0.1  722  275           
06 28.05.12 110 (В) >10 км    6/6 800 м кучево-дожд. 
[Cb calv]
+17.5 +12.1 71 +23  1014.5  -0.2  722  271  +10.5    0.0     
09 28.05.12 тихо ()   >10 км    8/8 800 м кучево-дожд. 
[Cb calv]
+19.6 +11 58 +23  1013.2  -0.9  721  269           
12 28.05.12 120 (ЮВ) >10 км    6/6 900 м 
[Cu hum]
+21.5 +11 51 +25  1011.4  -1.3  720  267           
15 28.05.12 100 (В) >10 км    6/4 600 м верхняя 
[Cu hum|Ci fib]
+21.5 +10.7 50 +24  1010.2  -1.2  719  267    +22.7       
18 28.05.12 110 (В) >10 км    4/0 средняя 
[Ac trans]
+15.9 +11.3 74 +20  1011.1  -0.1  719  272    +22.7       
21 28.05.12 110 (В) >10 км    3/0 средняя 
[Ac trans]
+14.5 +11.5 82 +19  1009.8  -1.4  718  273           
00 29.05.12 110 (В) >10 км    4/0 средняя 
[Ac trans]
+14.3 +12.1 87 +19  1009.5  -0.4  718  272           
03 29.05.12 050 (СВ) >10 км    9/1 1000 м кучево-дожд., средняя 
[Cb calv|Ac trans]
+15.5 +12.9 84 +22  1009.6  0.3  718  271  +13.3        сухая 
06 29.05.12 150 (ЮВ) >10 км  в посл. час ливневой дождь  10/3 1000 м кучево-дожд., средняя 
[Cb calv|Ac trans]
+17.7 +14 79 +26  1010.3  719  269  +13.3         
09 29.05.12 150 (ЮВ) >10 км    4/3 800 м средняя 
[Cu hum|Ac trans]
+24.3 +8.1 36 +24  1009.1  0.1  719  265           
12 29.05.12 110 (В) >10 км    8/5 600 м кучево-дожд., средняя 
[Cb calv|Ac trans]
+22.5 +8.7 41 +23  1009.7  0.3  719  266           
15 29.05.12 240 (ЮЗ) 2{18}  >10 км  в посл. час гроза{ливн. осадки}  8/5 300 м кучево-дожд., средняя 
[Cb calv|Ac trans]
+13.4 +12.2 92 +19  1013.7  2.2  721  274           
18 29.05.12 260 (З) >10 км    4/0 средняя 
[Ac trans]
+13.4 +10.1 80 +16  1014.6  0.8  721  275    +24.7     
21 29.05.12 280 (З) >10 км    8/0 средняя 
[Ac trans]
+14.5 +11.2 81 +19  1013.8  -0.6  721  274           
00 30.05.12 130 (ЮВ) >10 км    8/0 средняя 
[Ac trans]
+14.8 +9.9 72 +17  1013.9  0.1  721  274           
03 30.05.12 080 (В) >10 км    9/4 1000 м средняя 
[Sc|Ac trans]
+14.6 +10.7 77 +18  1013.8  -0.1  721  274           
06 30.05.12 090 (В) >10 км  слаб. дождь  10/5 1000 м средняя 
[Sc|Ac und]
+15.4 +12.5 83 +22  1014.1  0.4  721  273  +12.1         
09 30.05.12 350 (С) >10 км  слаб. ливневой дождь{гроза}  10/6 480 м кучево-дожд., средняя 
[Cb calv|Ac trans]
+15.9 +14.5 91 +26  1014.2  0.3  722  272           
12 30.05.12 060 (СВ) >10 км  {гроза, ливн. осадки}  8/3 600 м кучево-дожд., средняя 
[Cb calv|Ac trans]
+19 +15.6 81 +30  1013.1  -0.5  721  268           
15 30.05.12 100 (В) >10 км    8/3 600 м кучево-дожд., средняя 
[Cb calv|Ac trans]
+19 +14.5 75 +29  1012.4  -0.7  721  268    +20.4       
18 30.05.12 290 (З) >10 км  зарница  10/6 600 м кучево-дожд., средняя 
[Cb calv|Ac und]
+16.8 +13.8 82 +26  1014.1  1.2  722  271    +20.4     
21 30.05.12 260 (З) >10 км  {ливн. осадки}  10/3 600 м кучево-дожд., средняя 
[Cb calv|Ac und]
+16.6 +15.3 92 +27  1013.5  -0.6  721  271           
00 31.05.12 300 (СЗ) >10 км  зарница{ливн. осадки}  6/3 600 м кучево-дожд., средняя 
[Cb calv|Ac trans]
+15.4 +14 91 +23  1014.4  0.6  722  272           
03 31.05.12 240 (ЮЗ) 10 км  слаб. ливневой дождь  10/8 900 м кучево-дожд., средняя 
[Cb cap|Ac und]
+14.3 +13 92 +20  1015.6  0.6  722  274           
06 31.05.12 230 (ЮЗ) >10 км  {ливн. осадки}  9/5 300 м кучево-дожд., средняя 
[Cb calv|Ac trans]
+18.6 +13.8 74 +28  1014.7  722  270  +14.3       
09 31.05.12 260 (З) >10 км    9/6 700 м кучево-дожд., средняя 
[Cb calv|Ac trans]
+20.6 +13.7 65 +28  1013.8  -0.6  722  268           
12 31.05.12 340 (С) >10 км    8/6 800 м кучево-дожд., средняя 
[Cb calv|Ac trans]
+21.6 +14 62 +30  1012.8  -0.7  721  266           
15 31.05.12 320 (СЗ) >10 км  в посл. час ливневой дождь  9/8 800 м кучево-дожд., средняя 
[Cb calv|Ac trans]
+20.3 +13.5 65 +27  1012.2  -0.8  721  268    +22.3       
18 31.05.12 170 (Ю) >10 км  слаб. ливневой дождь  10/8 600 м кучево-дожд., средняя 
[Cb cap|Ac und]
+16.6 +15.5 93 +28  1013.6  0.8  721  271    +22.3  0.8     
21 31.05.12 230 (ЮЗ) 10 км  слаб. ливневой дождь  10/8 450 м кучево-дожд., средняя 
[Cb cap|Ac und]
+16.1 +15.1 94 +27  1013.9  0.2  721  271           
00 01.06.12 240 (ЮЗ) >10 км  слаб. ливневой дождь  10/8 630 м кучево-дожд., средняя 
[Cb cap|Ac und]
+14.7 +13.7 94 +22  1013.9  -0.3  721  273           
03 01.06.12 290 (З) 10 км  слаб. ливневой дождь  10/8 750 м кучево-дожд., средняя 
[Cb cap|Ac und]
+15.1 +14.3 95 +24  1014  0.2  721  272           
06 01.06.12 350 (С) 2000 м  ливневой дождь  10/8 200 м кучево-дожд., средняя 
[Cb cap|Ac und]
+14.5 +13.9 96 +23  1014.8  0.6  722  273  +14.5       
09 01.06.12 350 (С) >10 км  слаб. ливневой дождь  10/8 150 м кучево-дожд., средняя 
[Cb cap|Ac und]
+15.2 +13.9 92 +24  1014.8  0.2  722  273           
Время (UTC), дата Ветер
(°,м/с) 
Видим.   Явления Облачность Т
(°С)
Тd
(°С)
f(%) Тe
(°С)
Pmin
(гПа)
dP
(гПа)
Po
(мм)
O2
(г/м3)
Тmin Tmax R s Состояние
почвы